This demonstration page uses our WeatherBlox Daily Observations layout. Learn more.

Left ArrowRight Arrow

Hourly Observations for February 9, 2016

Temp ( °F °C ) Dew Point ( °F °C ) Humidity (%) Winds ( mph kmh ) Pressure ( in mb ) Visibility ( mi km ) Precip ( " mm )
12:15 am 00:15 Partly Cloudy 25 -3.9 16 -9.1 68 68 WNW 9 15 30.30 1026 10 16 N/A
12:35 am 00:35 Partly Cloudy 26 -3.5 15 -9.2 65 65 WNW 7 11 30.30 1026 10 16 N/A
12:55 am 00:55 Mostly Cloudy 24 -4.2 16 -9.1 69 69 WNW 5 7 30.30 1026 10 16 N/A
1:15 am 01:15 Mostly Cloudy 26 -3.4 17 -8.6 68 68 WNW 8 13 30.30 1026 10 16 N/A
1:35 am 01:35 Partly Cloudy 25 -3.8 16 -8.8 69 69 WNW 7 11 30.30 1026 10 16 N/A
1:55 am 01:55 Mostly Cloudy 27 -2.9 17 -8.1 68 68 WNW 8 13 30.27 1025 10 16 N/A
2:15 am 02:15 Mostly Cloudy 27 -2.9 17 -8.1 68 68 WNW 6 9 30.27 1025 10 16 N/A
2:35 am 02:35 Mostly Cloudy 26 -3.3 18 -8 70 70 W 7 11 30.27 1025 10 16 N/A
2:55 am 02:55 Cloudy 27 -3 18 -7.8 70 70 WNW 6 9 30.30 1026 10 16 N/A
3:15 am 03:15 Cloudy 26 -3.3 18 -7.9 71 71 WNW 6 9 30.30 1026 10 16 N/A
3:35 am 03:35 Cloudy 25 -3.7 18 -8 72 72 WNW 5 7 30.27 1025 10 16 N/A
3:55 am 03:55 Mostly Cloudy 27 -3 18 -7.8 70 70 WNW 6 9 30.30 1026 10 16 N/A
4:15 am 04:15 Cloudy 27 -2.6 18 -7.8 68 68 WNW 8 13 30.30 1026 10 16 N/A
4:35 am 04:35 Cloudy 26 -3.5 18 -8 71 71 NW 8 13 30.30 1026 10 16 N/A
4:55 am 04:55 Cloudy 26 -3.3 18 -7.7 72 72 NW 5 7 30.30 1026 10 16 N/A
5:15 am 05:15 Partly Cloudy 25 -3.7 18 -7.8 74 74 NW 7 11 30.33 1027 10 16 N/A
5:35 am 05:35 Clear 24 -4.3 18 -8 76 76 NW 6 9 30.30 1026 10 16 N/A
5:55 am 05:55 Partly Cloudy 26 -3.6 18 -8 72 72 NNW 6 9 30.33 1027 10 16 N/A
6:15 am 06:15 Mostly Cloudy 26 -3.5 18 -7.7 73 73 N 5 7 30.33 1027 10 16 N/A
6:35 am 06:35 Cloudy 26 -3.1 19 -7.4 73 73 NNW 7 11 30.33 1027 10 16 N/A
6:55 am 06:55 Cloudy 27 -2.6 18 -7.6 69 69 N 8 13 30.36 1028 10 16 N/A
7:15 am 07:15 Mostly Cloudy 27 -2.7 18 -8 67 67 NNW 9 15 30.36 1028 10 16 N/A
7:35 am 07:35 Cloudy 27 -2.7 18 -7.8 68 68 NNW 8 13 30.36 1028 10 16 N/A
7:55 am 07:55 Cloudy 28 -2.5 18 -7.8 67 67 N 9 15 30.33 1027 10 16 N/A
8:15 am 08:15 Cloudy 27 -2.6 19 -7.2 71 71 NW 5 7 30.36 1028 10 16 N/A
8:35 am 08:35 Cloudy 28 -2.5 19 -7.3 70 70 NNW 7 11 30.36 1028 10 16 N/A
8:55 am 08:55 Cloudy 28 -2.3 19 -7 70 70 NNW 5 7 30.36 1028 10 16 N/A
9:15 am 09:15 Cloudy 28 -2 19 -7.1 68 68 NNW 7 11 30.36 1028 10 16 N/A
9:35 am 09:35 Cloudy 28 -2 20 -6.8 70 70 NNW 6 9 30.36 1028 10 16 N/A
9:55 am 09:55 Cloudy 29 -1.8 19 -7 68 68 N 7 11 30.39 1029 10 16 N/A
10:15 am 10:15 Cloudy 29 -1.8 20 -6.8 69 69 N 12 19 30.39 1029 10 16 N/A
10:35 am 10:35 Cloudy 29 -1.7 20 -6.9 68 68 N 10 17 30.42 1030 10 16 N/A
10:55 am 10:55 Cloudy 29 -1.6 19 -7.4 65 65 N 12 19 30.42 1030 10 16 N/A
11:15 am 11:15 Cloudy 29 -1.6 19 -7.4 65 65 N 13 20 30.42 1030 10 16 N/A
11:35 am 11:35 Cloudy 29 -1.5 17 -8.4 60 60 N 10 17 30.42 1030 10 16 N/A
11:55 am 11:55 Cloudy 28 -2 17 -8.2 63 63 N 17 28 30.42 1030 10 16 N/A
12:15 pm 12:15 Cloudy 28 -2 17 -8.1 63 63 N 14 22 30.42 1030 10 16 N/A
12:35 pm 12:35 Cloudy 28 -2 18 -8 64 64 N 10 17 30.42 1030 10 16 N/A
12:55 pm 12:55 Cloudy 28 -2.1 17 -8.2 63 63 N 10 17 30.42 1030 10 16 N/A
1:15 pm 13:15 Cloudy 28 -2 17 -8.3 62 62 N 8 13 30.42 1030 10 16 N/A
1:35 pm 13:35 Cloudy 28 -2 17 -8.6 61 61 N 6 9 30.39 1029 10 16 N/A
1:55 pm 13:55 Cloudy 28 -2 17 -8.6 61 61 N 5 7 30.39 1029 10 16 N/A
2:15 pm 14:15 Cloudy 29 -1.8 17 -8.6 60 60 N 5 7 30.39 1029 10 16 N/A
2:35 pm 14:35 Cloudy 29 -1.7 17 -8.4 61 61 N N/A 30.39 1029 10 16 N/A
2:55 pm 14:55 Cloudy 28 -2 17 -8.6 61 61 N 3 6 30.39 1029 10 16 N/A
3:15 pm 15:15 Cloudy 30 -1.2 16 -8.7 57 57 NNW 3 6 30.33 1027 10 16 N/A
3:35 pm 15:35 Cloudy 29 -1.4 16 -8.8 58 58 NW 3 6 30.36 1028 10 16 N/A
3:55 pm 15:55 Cloudy 30 -1 17 -8.5 57 57 N N/A 30.33 1027 10 16 N/A
4:15 pm 16:15 Mostly Cloudy 30 -1 16 -8.7 56 56 N N/A 30.33 1027 10 16 N/A
4:35 pm 16:35 Cloudy 29 -1.6 17 -8.3 61 61 N N/A 30.36 1028 10 16 N/A
4:55 pm 16:55 Cloudy 29 -1.7 18 -8 63 63 N N/A 30.36 1028 10 16 N/A
5:15 pm 17:15 Cloudy 29 -1.6 18 -8 62 62 N N/A 30.36 1028 10 16 N/A
5:35 pm 17:35 Cloudy 29 -1.7 18 -7.9 63 63 S 3 6 30.36 1028 10 16 N/A
5:55 pm 17:55 Cloudy 29 -1.9 19 -7.4 66 66 SSE 5 7 30.33 1027 10 16 N/A
6:15 pm 18:15 Cloudy 28 -2 19 -7.4 67 67 S 5 7 30.33 1027 10 16 N/A
6:35 pm 18:35 Cloudy 28 -2.1 20 -6.7 71 71 S 5 7 30.36 1028 10 16 N/A
6:55 pm 18:55 Cloudy 28 -2.2 19 -7.1 69 69 S 6 9 30.36 1028 10 16 N/A
7:15 pm 19:15 Cloudy 28 -2.5 19 -7 72 72 S 6 9 30.36 1028 10 16 N/A
7:35 pm 19:35 Cloudy 28 -2.5 20 -6.6 74 74 S 7 11 30.33 1027 10 16 N/A
7:55 pm 19:55 Cloudy 28 -2.5 19 -7.1 71 71 S 7 11 30.33 1027 10 16 N/A
8:15 pm 20:15 Cloudy 28 -2.5 19 -7 72 72 SSW 10 17 30.27 1025 10 16 N/A
8:35 pm 20:35 Cloudy 28 -2.3 20 -6.8 72 72 S 9 15 30.27 1025 10 16 N/A
8:55 pm 20:55 Cloudy 28 -2.1 20 -6.7 71 71 SSW 10 17 30.27 1025 10 16 N/A
9:15 pm 21:15 Cloudy 28 -2 20 -6.6 71 71 S 10 17 30.27 1025 10 16 N/A
9:35 pm 21:35 Cloudy 28 -2 20 -6.7 71 71 SSW 9 15 30.27 1025 10 16 N/A
9:55 pm 21:55 Cloudy 28 -2 21 -6.3 73 73 SSW 10 17 30.24 1024 10 16 N/A
10:15 pm 22:15 Cloudy 28 -2 21 -6 74 74 SSW 10 17 30.24 1024 10 16 N/A
10:35 pm 22:35 Cloudy 28 -2 22 -5.7 76 76 SSW 12 19 30.24 1024 10 16 N/A
10:55 pm 22:55 Cloudy 28 -2 22 -5.5 77 77 SSW 10 17 30.24 1024 10 16 N/A
11:15 pm 23:15 Cloudy 29 -1.9 23 -5.2 78 78 SW 13 20 30.24 1024 10 16 N/A
11:35 pm 23:35 Cloudy 29 -1.5 23 -5 77 77 SW 10 17 30.24 1024 10 16 N/A
11:55 pm 23:55 Cloudy 29 -1.5 23 -4.8 78 78 SW 9 15 30.24 1024 10 16 N/A

Powered by AerisWeather